星链-36302(STARLINK-36302)

导读

STARLINK-36302(NORAD编号68524)是SpaceX星链(Starlink)星座中的一颗低轨通信卫星,隶属于SpaceX公司全球低轨卫星互联网组网计划。该卫星运行于近地轨道,作为星链星座的组成部分,主要为全球偏远地区、海洋、航空等场景提供低时延高速互联网接入服务。 2026年SpaceX启动四千颗星链卫星降轨计划,STARLINK-36302大概率在此批次中,轨道高度将从550公里降至480公里,降轨后可降低太空碰撞风险,减少空间碎片产生,提升近地轨道运行安全性。

Basic Information
目录编号:
68524
目录名称:
STARLINK-36302
国际标识:
2026-068S
轨道中心:
EARTH
卫星名称:
星链-36302
卫星全名:
星链-36302(STARLINK-36302)
卫星状态:
在轨 (已飞行75 天)
发射日期:
2026-03-30 UTC
国别 :
美国 (US)
星等 :
--
Orbit Information
数据来源 国际轨道数据 AOE轨道数据
星历时间 2026-06-13T03:41:58+0800
8小时前
查看轨道信息
2026-06-09T00:00:00+0800
4天前
查看轨道信息
半长轴 6840.791km 6840.893km
偏心率 0.0001437 0.0001343
轨道倾角 53.160° 53.160°
近地点辐角 106.149° 65.885°
升交点赤经 45.720° 65.138°
平近点角 253.967° 14.604°
近地点 461.67km 461.837km
远地点 463.638km 463.675km
周期 93.847分钟 93.849分钟
每日圈数 15.344169 15.343825
Detailed Information
固有亮度:
5
最大亮度:
2.5
卫星平台:
Starlink V1.0
覆盖范围:
全球
运营商:
太空探索技术公司
运营商所在国:
美国
制造商(研发单位):
太空探索技术公司
制造商所在国:
美国
使用方式:
暂无
Satellite Introduction
Starlink 计划是 SpaceX 推出的全球卫星互联网项目,通过发射低轨道卫星,为全球尤其是偏远地区提供高速、低延迟的互联网服务。自 2019 年起,Starlink 已部署数千颗卫星,旨在缩小全球数字鸿沟,推动互联网普及。该项目还为军事、航空等行业提供通信支持,带来广泛经济效益。
2D Orbit Map
3D Orbit Map
Orbit Altitude Analysis Chart
Orbit Inclination Analysis Chart
Orbit Comprehensive Analysis Chart
View Comprehensive Chart